Location: Bois de la Silve
(44.4667°N, 6.7833°E)
Time: 19:40:34
(UTC+00:00)

DELTA 2 DEB (DPAF) - Pass Details

Date: 14 July 2020
Orbit: 641 x 647 km, 98.3° (Epoch: 14 August)

Event Time Altitude Azimuth Distance (km) Brightness Sun altitude
Exits shadow 00:46:51 44° 136° (SE) 894 4.6 -22.1°
Maximum altitude 00:48:06 66° 73° (ENE) 710 4.4 -22.0°
Drops below altitude 10° 00:52:32 10° 352° (N) 2,053 7.6 -21.8°
Sets 00:54:45 0° 350° (N) 2,966 8.6 -21.7°
